Hannover, Germany

11:13 PM CEST on April 26, 2018 (GMT +0200)
Hannover

Weather History for EDDV - April, 2018

Change the Weather History Date:

Monday, April 16, 2018

  Actual Average Record
Temperature  
Mean Temperature 58 °F -  
Max Temperature 68 °F 60 °F 80 °F (2007)
Min Temperature 48 °F 41 °F 27 °F (2014)
Degree Days  
Heating Degree Days 7    
Growing Degree Days 8 (Base 50)    
Moisture  
Dew Point 50 °F    
Average Humidity 80    
Maximum Humidity 100    
Minimum Humidity 49    
Precipitation  
Precipitation 0.00 in 0.07 in - ()
Sea Level Pressure  
Sea Level Pressure 29.94 in    
Wind  
Wind Speed 5 mph ()    
Max Wind Speed 13 mph    
Max Gust Speed -    
Visibility 4.3 miles    
Events Fog    
Averages and records for this station are not official NWS values.
T = Trace of Precipitation, MM = Missing Value Source: Averaged Metar Reports

Daily Weather History Graph

Daily Weather History Graph

Search for Another Location

Airport or City:

Astronomy

Apr. 16, 2018 Rise Set
Actual Time 6:21 AM CEST 8:21 PM CEST
Civil Twilight 5:45 AM CEST 8:58 PM CEST
Nautical Twilight 4:59 AM CEST 9:43 PM CEST
Astronomical Twilight 4:08 AM CEST 10:36 PM CEST
Moon 7:02 AM CEST (4/16) 8:48 PM CEST (4/16)
Length of Visible Light 15h 12m
Length of Day
13h 59m
New Moon, 0% of the Moon is Illuminated
Apr 16
New Moon
Apr 22
First Quarter
Apr 30
Full
May 8
Last Quarter
May 15
New

Hourly Weather History & Observations

Time (CEST) Temp. Dew Point Humidity Pressure Visibility Wind Dir Wind Speed Gust Speed Precip Events Conditions
12:20 AM 50.0 °F 50.0 °F 100% 29.86 in 2.2 mi ENE 4.6 mph - N/A Fog Patches of Fog
12:50 AM 50.0 °F 50.0 °F 100% 29.86 in - East 4.6 mph - N/A   Mist
1:20 AM 50.0 °F 50.0 °F 100% 29.86 in - Variable 1.2 mph - N/A   Mist
1:50 AM 50.0 °F 50.0 °F 100% 29.86 in - Variable 2.3 mph - N/A   Mist
2:20 AM 50.0 °F 50.0 °F 100% 29.86 in 1.9 mi East 4.6 mph - N/A   Mist
2:50 AM 50.0 °F 50.0 °F 100% 29.86 in 1.7 mi East 5.8 mph - N/A   Mist
3:20 AM 50.0 °F 50.0 °F 100% 29.86 in 1.6 mi East 4.6 mph - N/A   Mist
3:50 AM 50.0 °F 48.2 °F 94% 29.86 in 1.4 mi East 4.6 mph - N/A   Mist
4:20 AM 50.0 °F 48.2 °F 94% 29.86 in 0.9 mi Variable 1.2 mph - N/A   Mist
4:50 AM 50.0 °F 48.2 °F 94% 29.86 in 0.5 mi Variable 2.3 mph - N/A Fog Fog
5:20 AM 48.2 °F 48.2 °F 100% 29.86 in 0.7 mi East 2.3 mph - N/A   Mist
5:50 AM 50.0 °F 48.2 °F 94% 29.86 in 1.0 mi East 3.5 mph - N/A   Mist
6:20 AM 50.0 °F 48.2 °F 94% 29.86 in 1.0 mi Variable 1.2 mph - N/A Fog Patches of Fog
6:50 AM 48.2 °F 48.2 °F 100% 29.86 in 0.7 mi Calm Calm - N/A Fog Patches of Fog
7:20 AM 50.0 °F 50.0 °F 100% 29.89 in 0.9 mi East 3.5 mph - N/A Fog Patches of Fog
7:50 AM 50.0 °F 50.0 °F 100% 29.89 in 1.2 mi Variable 1.2 mph - N/A   Mist
8:20 AM 50.0 °F 50.0 °F 100% 29.89 in 1.4 mi WNW 2.3 mph - N/A   Mist
8:50 AM 51.8 °F 51.8 °F 100% 29.89 in 1.6 mi Variable 1.2 mph - N/A   Mist
9:20 AM 53.6 °F 51.8 °F 94% 29.92 in - Calm Calm - N/A   Mist
9:50 AM 55.4 °F 53.6 °F 94% 29.92 in - WNW 1.2 mph - N/A   Mostly Cloudy
10:20 AM 57.2 °F 51.8 °F 82% 29.92 in 3.7 mi Variable 2.3 mph - N/A   Unknown
10:50 AM 59.0 °F 51.8 °F 77% 29.92 in 5.0 mi West 3.5 mph - N/A   Unknown
11:20 AM 60.8 °F 53.6 °F 77% 29.92 in - West 3.5 mph - N/A   Clear
11:50 AM 60.8 °F 53.6 °F 77% 29.92 in 6.2 mi West 6.9 mph - N/A   Mostly Cloudy
12:20 PM 62.6 °F 53.6 °F 72% 29.92 in 6.2 mi West 6.9 mph - N/A   Mostly Cloudy
12:50 PM 64.4 °F 53.6 °F 68% 29.92 in 6.2 mi West 9.2 mph - N/A   Mostly Cloudy
1:20 PM 64.4 °F 51.8 °F 64% 29.92 in 6.2 mi West 9.2 mph - N/A   Mostly Cloudy
1:50 PM 66.2 °F 51.8 °F 60% 29.92 in 6.2 mi West 8.1 mph - N/A   Mostly Cloudy
2:20 PM 68.0 °F 48.2 °F 49% 29.95 in 6.2 mi West 10.4 mph - N/A   Mostly Cloudy
2:50 PM 66.2 °F 50.0 °F 56% 29.95 in 6.2 mi West 9.2 mph - N/A   Scattered Clouds
3:20 PM 66.2 °F 50.0 °F 56% 29.95 in 6.2 mi West 10.4 mph - N/A   Mostly Cloudy
3:50 PM 66.2 °F 50.0 °F 56% 29.95 in 6.2 mi West 11.5 mph - N/A   Mostly Cloudy
4:20 PM 64.4 °F 50.0 °F 59% 29.95 in 6.2 mi West 11.5 mph - N/A   Mostly Cloudy
4:50 PM 66.2 °F 48.2 °F 52% 29.98 in 6.2 mi West 11.5 mph - N/A   Mostly Cloudy
5:20 PM 64.4 °F 50.0 °F 59% 29.98 in 6.2 mi WNW 11.5 mph - N/A   Scattered Clouds
5:50 PM 64.4 °F 48.2 °F 56% 29.98 in 6.2 mi WNW 11.5 mph - N/A   Scattered Clouds
6:20 PM 64.4 °F 46.4 °F 52% 29.98 in 6.2 mi WNW 12.7 mph - N/A   Scattered Clouds
6:50 PM 64.4 °F 46.4 °F 52% 29.98 in 6.2 mi West 11.5 mph - N/A   Scattered Clouds
7:20 PM 62.6 °F 46.4 °F 55% 30.01 in 6.2 mi NW 8.1 mph - N/A   Scattered Clouds
7:50 PM 59.0 °F 46.4 °F 63% 30.01 in 6.2 mi WNW 8.1 mph - N/A   Scattered Clouds
8:20 PM 59.0 °F 50.0 °F 72% 30.04 in 6.2 mi NNW 6.9 mph - N/A   Scattered Clouds
8:50 PM 59.0 °F 50.0 °F 72% 30.04 in 6.2 mi North 6.9 mph - N/A   Scattered Clouds
9:20 PM 57.2 °F 50.0 °F 77% 30.06 in 6.2 mi NNE 5.8 mph - N/A   Scattered Clouds
9:50 PM 57.2 °F 50.0 °F 77% 30.09 in 6.2 mi NNW 6.9 mph - N/A   Scattered Clouds
10:20 PM 55.4 °F 50.0 °F 82% 30.09 in 6.2 mi NNE 6.9 mph - N/A   Scattered Clouds
10:50 PM 53.6 °F 50.0 °F 88% 30.09 in 6.2 mi NNE 5.8 mph - N/A   Mostly Cloudy
11:20 PM 51.8 °F 50.0 °F 94% 30.12 in 6.2 mi North 3.5 mph - N/A   Mostly Cloudy
11:50 PM 51.8 °F 50.0 °F 94% 30.12 in - North 2.3 mph - N/A   Clear